Погода в Федоровке

Россия / Тульская область     53°53′06″N   38°05′55″E
темп.,
°C
ветер,
м/с
пор.,
м/с
влажн.,
%
обл.,
%
осадки,
мм/ч
давл.,
гПа
погр.,
м
6 марта, сб
сб600:00−10зсз228823 0.0 101521
03:00−12з128813 0.0 101721
06:00−10зсз229299 0.0 101621
09:00−8ссз359499 1.2 1017268
12:00−7сз469029 0.0 1018402
15:00−6зсз468353 0.1 1017837
18:00−9з348866 0.1 101747
21:00−11з349357 0.1 101760
7 марта, вс
вс700:00−12зюз45920 0.0 101684
03:00−12юз512910 0.0 1014210
06:00−10юз8178662 0.0 1010480
09:00−7юз11198781 0.1 1005770
12:00−4юз121993100 0.6 10001130
15:00−2зюз121993100 1.8 9971259
18:00−6зсз61589100 2.3 9971071
21:00−8юз4783100 2.3 999125
8 марта, пн
пн800:00−7зюз7158934 0.0 999513
03:00−8зюз7158868 0.1 999552
06:00−7зюз7139483 0.2 998724
09:00−10з7129378 0.5 1001776
12:00−7зсз81182100 0.1 1004901
15:00−7зсз7118598 0.2 10061051
18:00−8зсз4109095 0.1 1008337
21:00−11зсз479460 0.1 1011100
9 марта, вт
вт900:00−13сз239781 0.0 101326
03:00−15ссз239778 0.1 101420
06:00−17с229796 0.0 101520
09:00−15с249598 0.0 1017170
12:00−12с3488100 0.0 1018434
15:00−11ссз3586100 0.0 1019655
18:00−13сз2392100 0.1 101920
21:00−14ссз2297100 0.1 102226
10 марта, ср
ср1000:00−17ссз229896 0.1 102420
03:00−20ссз1210089 0.1 102420
06:00−20ююз1110096 0.0 102420
09:00−15ююз349698 0.1 1024159
12:00−11ю4694100 0.6 1024359
15:00−8ююз3593100 1.7 1022412
18:00−7ююз2496100 0.9 1021197
21:00−9ююв1296100 1.5 102251